Terminal Aerodrome Forecast
Issued by NWS Portland, OR

Home | Current Version | Previous Version | Text Only | Print | Product List | Glossary On
Versions: 1 2 3 4 5 6 7 8 9 10 11 12 13 14 15 16 17 18 19 20 21 22 23 24 25 26 27 28 29 30 31 32 33 34 35 36 37 38 39 40 41 42 43 44 45 46 47 48 49 50
000
FTUS46 KPQR 212341
TAFPDX
TAF
KPDX 212341Z 2200/2224 16011KT P6SM -SHRA FEW030 BKN070
     FM220600 14012KT P6SM -RA BKN045 OVC070
     FM221700 17015G25KT 5SM -RA OVC035=

USA.gov is the U.S. government's official web portal to all federal, state and local government web resources and services.